SCP
0 0 0 0 0 0 0 0 0 0 0 0 0 0 0 0 0 0 0 0 1 1 1 1 0 0 0 0 0 1 1 0 0 0 0 0 0 0 0 0 0 0 0 0
0 0 0 0 0 0 0 0 0 0 0 0 0 0 0 0 0 0 0 0 1 1 1 1 0 0 0 0 1 1 1 0 0 0 0 0 0 0 0 0 0 0 0 0
0 0 0 0 0 0 0 0 0 0 0 0 0 0 0 0 0 0 0 0 0 1 1 1 1 0 0 0 1 1 1 0 0 0 0 0 0 0 0 0 0 0 0 0
0 0 0 0 0 0 0 0 0 0 0 0 0 0 0 0 0 0 0 0 0 0 1 1 1 1 0 0 1 1 1 1 0 0 1 1 1 0 0 0 0 0 1 1
0 0 1 1 1 0 0 0 0 0 0 0 0 0 0 0 0 0 0 0 0 0 1 1 1 1 1 1 1 1 1 1 1 1 1 1 1 1 1 1 1 1 1 1
0 0 1 1 1 1 0 0 0 0 0 0 0 0 0 0 0 0 0 0 0 0 1 1 1 1 1 1 1 1 1 1 1 1 1 1 1 1 1 1 1 1 1 1
0 0 0 1 1 1 1 0 0 0 0 0 0 0 0 0 0 0 0 0 0 0 1 1 1 1 1 1 1 1 1 1 1 1 1 1 1 1 1 1 1 1 1 1
0 0 0 1 1 1 0 0 0 0 0 0 0 0 0 0 0 0 0 0 0 0 0 1 1 1 2 1 1 1 1 1 1 1 1 1 1 1 1 1 1 1 1 1
0 0 0 1 1 0 0 0 0 0 0 0 0 0 0 0 0 0 0 0 0 0 0 0 1 1 2 2 1 1 1 1 1 1 1 1 1 1 1 1 1 1 1 1
0 0 0 0 1 1 0 0 0 0 0 0 0 0 0 0 0 0 0 0 0 0 0 0 0 1 1 2 2 1 1 1 1 1 1 1 1 0 0 0 1 1 1 1
0 0 0 0 0 0 0 0 0 0 0 0 0 0 0 0 0 0 0 0 0 0 0 0 0 1 1 1 2 1 1 1 1 1 1 1 1 0 0 0 1 1 1 1
0 0 0 0 0 0 0 0 0 0 0 0 0 0 0 0 0 0 0 0 0 0 1 1 0 0 1 1 1 2 1 1 1 1 1 1 0 0 0 0 0 1 1 1
0 0 0 0 0 0 0 0 0 0 0 0 0 0 0 0 0 0 0 0 0 1 1 1 1 1 0 1 1 1 1 1 1 1 1 1 0 0 0 0 0 0 0 0
0 0 0 0 0 0 0 0 0 0 0 0 0 0 0 0 0 0 0 0 0 1 1 1 1 1 1 1 1 1 1 1 1 1 1 1 1 0 0 0 0 0 0 0
0 0 0 0 0 0 0 0 0 0 0 0 0 0 0 0 0 0 0 0 0 1 1 1 1 1 1 0 0 1 1 1 1 1 1 1 1 0 0 0 0 0 0 0
0 0 0 0 0 0 0 0 0 0 0 0 0 0 0 0 0 0 0 0 0 1 1 1 1 1 0 0 0 0 1 1 1 1 1 1 1 1 1 1 1 1 0 0
0 0 0 0 0 0 0 0 0 0 0 0 0 0 0 0 0 0 0 0 0 1 1 1 1 1 0 0 0 0 1 1 1 1 1 1 1 1 1 1 1 1 1 0
0 0 0 0 0 0 0 0 0 0 0 0 0 0 0 0 0 0 0 0 0 1 1 1 1 1 1 0 0 0 0 1 1 0 0 0 1 1 1 0 0 0 0 0
0 0 0 0 0 0 0 0 0 0 0 0 0 0 0 0 0 0 0 0 0 1 1 1 1 1 1 0 0 0 0 0 0 0 0 0 0 0 0 0 0 0 0 0
0 0 0 0 0 0 0 0 0 0 0 0 0 0 0 0 0 0 0 0 0 0 1 1 1 1 1 0 0 0 0 0 0 0 0 0 0 0 0 0 0 0 0 0
0 0 0 0 0 0 0 0 0 0 0 0 0 0 0 0 0 0 0 0 0 0 1 1 1 1 0 0 0 0 0 0 0 0 0 0 0 0 0 0 1 1 1 1
0 0 0 0 0 0 0 0 0 0 0 0 0 0 0 0 0 0 0 0 0 0 1 1 1 0 0 0 0 0 0 0 0 0 0 0 0 0 0 0 1 1 1 1
0 0 0 0 0 0 0 0 0 0 0 0 0 0 0 0 0 0 0 0 0 0 0 0 0 0 0 0 0 0 0 0 0 0 0 0 0 0 0 0 0 1 1 1
0 0 0 0 0 0 0 0 0 0 0 0 0 0 0 0 0 0 0 0 0 0 0 0 0 0 0 0 0 0 0 0 0 0 0 0 0 0 0 0 0 0 1 1
0 0 0 0 0 0 0 0 0 0 0 0 0 0 0 0 0 0 0 0 0 0 0 0 0 0 0 0 0 0 0 0 0 0 0 0 0 0 0 0 0 0 0 0
0 0 0 0 0 0 0 0 0 0 0 0 0 0 0 0 0 0 0 0 0 0 0 0 0 0 0 0 0 0 0 0 0 0 0 0 0 1 0 0 0 0 0 0
Wind_Speed
3 6 6 5 5 4 3 4 4 2 1 5 6 6 5 5 7 7 7 8 8 8 8 7 7 7 6 6 6 6 6 6 4 3 3 2 2 2 2 1 2 2 2 2
6 7 3 2 3 5 6 6 4 2 1 5 5 5 5 5 7 6 6 7 8 8 9 8 8 7 7 7 7 7 6 6 5 3 3 2 2 2 2 2 2 2 1 1
8 2 2 5 5 6 7 7 5 4 3 5 5 6 6 5 6 6 7 7 8 8 9 10 10 9 8 7 7 6 7 7 6 5 3 3 3 2 2 2 2 1 1 1
5 3 4 6 6 6 6 4 6 6 7 4 5 6 4 5 6 7 8 8 9 9 9 9 9 9 9 8 7 7 7 6 6 5 4 5 4 3 3 2 2 2 2 2
5 4 6 7 5 6 4 2 5 7 8 7 6 7 3 4 5 6 7 8 9 9 9 9 9 9 9 8 7 6 6 6 6 5 5 5 4 3 2 3 3 2 2 2
4 3 5 4 2 3 3 4 5 6 7 8 5 7 3 2 4 5 6 7 8 9 9 9 8 7 8 7 6 6 6 6 6 6 6 5 5 4 4 4 3 2 2 1
7 6 4 3 4 5 6 6 5 6 6 5 2 6 4 1 2 4 4 5 6 8 8 8 8 8 8 8 8 8 7 7 6 6 6 6 5 5 5 4 3 3 2 2
8 7 5 5 6 6 7 8 6 5 4 3 4 6 1 1 2 3 4 4 5 7 7 7 8 8 8 8 8 8 8 7 7 6 5 5 5 4 3 3 3 3 2 2
5 4 3 2 4 6 7 7 5 7 6 6 5 4 4 3 3 2 3 4 5 6 7 7 7 7 7 8 8 8 9 8 7 6 5 5 5 4 4 3 3 3 2 2
5 5 3 3 4 2 5 4 5 7 7 7 5 6 4 4 3 2 3 4 5 5 6 7 7 6 6 6 7 7 8 8 7 6 5 4 4 4 3 3 3 3 3 2
7 7 4 5 7 6 6 7 7 6 6 7 5 2 1 2 2 2 2 3 4 4 5 6 6 6 6 6 6 7 7 7 6 6 6 5 4 4 4 3 3 3 3 3
4 7 6 6 3 4 7 7 8 8 7 7 7 3 2 2 2 2 3 2 2 3 4 5 5 6 5 5 5 6 6 6 6 6 6 5 4 4 4 4 3 3 3 3
4 7 7 6 6 6 6 6 8 9 8 8 9 4 3 0 1 2 2 2 2 3 4 4 4 5 5 5 5 5 5 5 5 5 5 5 4 4 4 4 4 4 3 3
4 7 8 8 4 4 7 7 8 10 9 10 11 9 5 4 4 4 3 2 1 3 4 4 4 5 4 4 4 5 5 5 5 5 5 5 5 4 4 4 4 4 3 3
5 8 8 8 7 7 9 10 11 13 13 12 11 11 8 6 6 5 4 2 2 3 3 4 4 4 5 4 4 4 4 4 5 5 5 5 4 4 3 3 4 4 3 3
4 6 7 9 7 8 11 11 12 13 13 13 13 12 7 5 4 4 4 3 3 3 4 4 5 5 5 5 4 4 4 5 5 5 5 4 4 4 4 4 4 4 3 3
4 6 7 9 7 8 13 11 12 11 10 11 12 9 5 5 4 4 3 3 3 3 3 4 5 5 5 4 4 4 4 4 5 5 4 4 4 4 4 4 4 4 3 3
7 8 6 7 7 13 4 2 6 9 9 9 8 7 6 5 4 4 3 4 4 3 3 3 4 5 4 4 4 4 4 5 4 4 4 4 4 4 4 4 4 4 3 3
8 8 6 7 9 10 6 4 5 7 8 6 7 6 4 3 4 4 2 3 3 3 3 3 3 4 4 5 5 5 5 5 4 4 4 4 4 4 4 4 4 4 3 3
5 7 7 8 9 9 3 1 1 6 8 3 5 4 3 4 6 3 1 2 3 3 2 2 3 3 4 4 5 5 5 5 5 4 4 4 4 4 4 4 4 3 3 3
6 7 9 10 10 8 1 1 3 7 2 0 3 4 4 5 4 2 2 2 2 2 2 2 3 4 4 4 5 6 5 5 4 4 4 4 4 4 4 4 4 4 3 3
7 7 8 8 10 7 2 3 4 3 3 3 3 3 4 4 3 3 2 2 2 1 2 2 3 3 4 5 5 6 5 4 4 4 4 4 4 3 3 4 4 4 4 4
7 6 4 6 4 2 1 2 3 4 4 4 3 4 4 4 4 3 3 2 2 2 2 2 3 3 3 5 6 6 4 4 5 5 5 4 4 3 4 4 4 4 4 3
4 4 6 7 7 6 5 5 5 4 4 4 5 5 5 5 4 4 3 3 2 2 2 2 3 4 4 4 5 5 5 6 6 6 5 4 4 4 4 3 3 3 3 3
5 4 7 9 7 7 6 5 5 5 5 5 6 5 5 5 5 5 4 4 3 3 3 3 4 4 4 4 5 5 5 6 7 6 5 5 4 4 4 4 2 3 2 2
8 9 9 9 7 8 7 6 7 7 7 7 6 6 6 6 6 6 5 4 4 4 4 4 4 4 4 5 5 5 5 6 6 6 5 4 4 4 4 4 3 2 1 1
Wind_Direction
190 218 216 217 231 256 234 238 246 258 235 232 236 245 231 197 208 215 208 204 204 205 190 184 182 185 181 179 185 177 172 173 167 169 179 165 152 147 133 115 98 121 120 109
207 217 229 226 217 220 225 234 248 240 241 253 250 252 241 217 217 221 219 209 208 206 193 187 190 189 187 183 189 187 183 178 176 179 179 169 155 156 125 147 147 153 144 127
224 205 185 201 201 214 229 239 251 267 257 230 260 246 216 206 214 218 223 218 210 208 203 195 193 192 191 191 195 198 189 182 179 173 170 154 143 158 162 167 157 161 163 146
227 214 202 214 219 237 238 245 250 250 255 246 253 270 226 212 208 212 216 216 213 209 208 201 198 196 199 198 198 201 190 183 177 175 180 177 182 181 179 171 164 172 171 172
208 207 223 232 235 242 264 235 244 251 258 262 238 262 231 194 222 220 213 211 213 210 208 204 202 201 199 193 195 200 186 180 175 182 181 196 193 185 169 168 166 173 162 180
229 212 242 251 248 226 189 201 214 229 246 250 244 253 259 214 242 236 214 208 209 208 205 203 198 196 194 185 184 189 184 178 176 185 189 196 189 189 179 182 179 182 170 184
212 206 202 216 208 186 212 232 231 221 222 237 201 246 254 291 273 264 243 213 205 204 202 199 192 191 189 187 187 185 183 181 181 189 197 198 195 195 195 190 192 199 195 191
220 211 198 213 236 230 224 241 255 264 258 237 208 240 213 302 277 265 243 216 199 195 197 196 192 192 189 188 190 190 185 186 185 193 198 198 190 194 197 200 201 207 214 208
236 218 177 225 249 239 221 229 270 278 275 264 229 232 233 232 238 231 218 208 202 196 196 195 190 190 188 186 188 192 187 187 185 193 196 194 190 190 195 204 204 207 208 199
257 243 201 182 187 207 261 227 224 243 258 254 242 243 236 205 227 224 217 212 205 200 198 195 189 189 186 185 188 191 192 188 185 188 191 192 197 192 191 197 198 209 205 195
247 243 211 201 217 219 197 209 231 242 258 269 263 237 42 271 255 271 258 230 207 199 200 196 189 186 183 181 183 188 188 187 185 187 187 191 193 188 185 195 194 202 195 193
230 250 238 230 230 275 244 235 231 242 238 252 272 268 97 283 284 293 298 282 229 207 197 193 185 179 178 178 180 184 185 184 185 189 187 191 183 187 188 185 182 193 194 194
200 236 234 212 200 198 223 229 236 248 254 246 251 245 132 207 281 291 299 295 230 196 182 178 173 176 176 176 177 179 184 182 179 181 184 187 184 188 190 181 174 187 187 189
246 241 247 255 270 234 231 230 230 237 244 247 247 260 252 270 279 287 293 281 231 187 178 176 174 172 170 172 176 172 177 176 173 178 185 186 188 189 190 178 176 182 182 187
239 246 248 260 270 261 251 242 232 238 247 257 262 263 270 276 277 275 278 275 238 207 193 189 185 174 170 164 170 169 168 172 175 178 184 185 185 182 179 170 175 177 178 187
239 250 249 249 249 254 255 250 241 241 248 252 261 264 279 285 269 263 264 266 255 236 219 205 195 186 181 174 172 166 168 171 176 179 183 178 180 173 174 171 171 168 172 179
220 237 248 252 249 257 251 243 238 238 238 247 254 263 267 260 262 273 283 280 272 266 236 214 204 198 190 184 178 173 170 169 175 179 177 171 174 170 171 165 167 168 170 168
232 233 247 257 245 246 253 252 239 243 246 247 256 264 260 261 263 265 280 286 290 282 253 221 203 198 191 182 180 173 172 171 176 180 175 170 174 171 168 169 170 170 166 163
231 227 234 242 247 258 248 228 222 236 245 247 251 253 251 251 246 232 259 281 289 288 267 239 210 195 186 182 178 179 180 179 182 183 179 176 178 175 173 177 178 173 168 164
205 223 236 236 244 251 237 139 248 249 242 226 241 247 244 233 246 240 277 296 295 294 269 228 202 194 190 187 184 188 192 192 192 189 181 176 182 180 179 180 177 172 168 164
186 204 226 238 247 258 348 111 198 232 269 94 255 256 237 242 280 315 298 284 278 268 245 207 199 198 192 191 194 199 201 203 194 184 178 173 179 182 177 171 168 165 162 158
217 215 220 229 238 244 127 173 221 301 352 325 297 280 266 273 291 284 279 273 264 245 216 202 203 202 193 195 200 203 205 197 182 180 180 178 175 166 161 159 163 162 161 163
231 242 248 240 257 352 205 248 301 318 303 303 294 294 286 275 266 270 276 273 259 238 213 205 208 207 204 202 205 205 194 183 184 183 182 181 174 168 163 164 165 163 165 172
232 248 247 254 253 254 256 272 280 287 299 305 293 282 276 272 268 265 260 253 243 232 222 212 209 214 210 205 206 204 188 186 186 185 185 183 180 173 172 168 170 172 173 180
254 239 247 255 265 268 257 259 275 288 295 297 292 281 273 270 266 263 257 247 243 237 232 224 222 222 217 206 204 199 190 187 188 185 185 186 186 180 182 178 175 189 189 197
235 241 249 259 267 273 277 284 288 286 287 289 285 280 275 264 262 261 256 251 247 239 232 227 227 224 215 205 201 196 191 190 190 188 188 188 187 185 187 178 163 109 158 133